Starlink 32454

operational
NORAD ID: 62142 Int'l Des: 2024-224 Owner: SPXS Country: US Constellation: starlink
LEOCIRCULAR

About Starlink 32454

Description loading...

Live Position

Loading 3D Globe...

Upcoming Passes

Altitude History

Altitude vs Time

uPlot chart will show altitude changes over time

Two-Line Element Set

1 62142U 24224D 25258.19698288 .00054203 00000-0 19605-2 0 9999
2 62142 43.0092 76.7232 0000190 273.5492 86.5338 15.27652024 45550
Epoch: Sep 15, 2025 • Age: 19 hours

Current Status

Altitude 494.0 km
Velocity 7.62 km/s
Sub-Earth Point -38.66°S, 29.63°E
Launch Date Nov 30, 2024
Age 0.7 years
Type internet

Technical Details

Classification Payload
Mass 730.00 kg
Dry Mass 700.00 kg
Total Mass 730.00 kg
Length 0.30 m
Diameter 4.10 m
Span 29.00 m
Shape Box + pan
Manufacturer SPXS
Bus Type Starlink V2M
Phase Status In Orbit
Owner/State SPXS/US

Large Constellations

Loading constellations...